Time,TemperatureF,DewpointF,PressureIn,WindDirection,WindDirectionDegrees,WindSpeedMPH,WindSpeedGustMPH,Humidity,HourlyPrecipIn,Conditions,Clouds,dailyrainin,SoftwareType,DateUTC
2013-01-28 00:15:00,20.0,-1.0,30.47,NNW,333,4.0,-999.0,39,-99.99,,,0.00,weatherlink.com 1.10,2013-01-28 05:15:00,
2013-01-28 00:30:00,19.9,-1.0,30.47,NW,317,4.0,-999.0,40,-99.99,,,0.00,weatherlink.com 1.10,2013-01-28 05:30:00,
2013-01-28 00:45:00,19.7,-1.0,30.46,NW,316,5.0,-999.0,40,-99.99,,,0.00,weatherlink.com 1.10,2013-01-28 05:45:00,
2013-01-28 01:00:00,19.6,-1.0,30.46,NNW,327,1.0,-999.0,41,-99.99,,,0.00,weatherlink.com 1.10,2013-01-28 06:00:00,
2013-01-28 01:15:00,19.6,0.0,30.46,WNW,288,2.0,-999.0,42,-99.99,,,0.00,weatherlink.com 1.10,2013-01-28 06:15:00,
2013-01-28 01:30:00,19.4,0.0,30.46,WNW,299,4.0,-999.0,43,-99.99,,,0.00,weatherlink.com 1.10,2013-01-28 06:30:00,
2013-01-28 01:45:00,19.3,1.0,30.47,NW,321,4.0,-999.0,44,-99.99,,,0.00,weatherlink.com 1.10,2013-01-28 06:45:00,
2013-01-28 02:00:00,19.3,2.0,30.47,NW,313,2.0,-999.0,46,-99.99,,,0.00,weatherlink.com 1.10,2013-01-28 07:00:00,
2013-01-28 02:15:00,19.3,2.0,30.47,NW,310,7.0,-999.0,46,-99.99,,,0.00,weatherlink.com 1.10,2013-01-28 07:15:00,
2013-01-28 02:30:00,19.2,1.0,30.47,NW,307,4.0,-999.0,46,-99.99,,,0.00,weatherlink.com 1.10,2013-01-28 07:30:00,
2013-01-28 02:45:00,19.1,2.0,30.46,NW,315,6.0,-999.0,47,-99.99,,,0.00,weatherlink.com 1.10,2013-01-28 07:45:00,
2013-01-28 03:00:00,19.3,2.0,30.46,NW,317,4.0,-999.0,48,-99.99,,,0.00,weatherlink.com 1.10,2013-01-28 08:00:00,
2013-01-28 03:15:00,19.2,2.0,30.45,NW,319,1.0,-999.0,48,-99.99,,,0.00,weatherlink.com 1.10,2013-01-28 08:15:00,
2013-01-28 03:30:00,19.3,3.0,30.45,WNW,297,2.0,-999.0,49,-99.99,,,0.00,weatherlink.com 1.10,2013-01-28 08:30:00,
2013-01-28 03:46:00,19.4,3.0,30.45,WNW,293,2.0,-999.0,48,-99.99,,,0.00,weatherlink.com 1.10,2013-01-28 08:46:00,
2013-01-28 04:01:00,19.6,3.0,30.45,WNW,296,6.0,-999.0,48,-99.99,,,0.00,weatherlink.com 1.10,2013-01-28 09:01:00,
2013-01-28 04:16:00,19.8,3.0,30.45,NW,306,3.0,-999.0,49,-99.99,,,0.00,weatherlink.com 1.10,2013-01-28 09:16:00,
2013-01-28 04:31:00,19.9,3.0,30.45,NW,305,6.0,-999.0,49,-99.99,,,0.00,weatherlink.com 1.10,2013-01-28 09:31:00,
2013-01-28 04:46:00,20.2,4.0,30.44,WNW,298,5.0,-999.0,49,-99.99,,,0.00,weatherlink.com 1.10,2013-01-28 09:46:00,
2013-01-28 05:01:00,20.3,4.0,30.43,WNW,290,2.0,-999.0,49,-99.99,,,0.00,weatherlink.com 1.10,2013-01-28 10:01:00,
2013-01-28 05:16:00,20.4,3.0,30.44,WNW,287,4.0,-999.0,48,-99.99,,,0.00,weatherlink.com 1.10,2013-01-28 10:16:00,
2013-01-28 05:31:00,20.5,4.0,30.44,WNW,290,4.0,-999.0,48,-99.99,,,0.00,weatherlink.com 1.10,2013-01-28 10:31:00,
2013-01-28 05:46:00,20.6,4.0,30.44,NW,310,1.0,-999.0,48,-99.99,,,0.00,weatherlink.com 1.10,2013-01-28 10:46:00,
2013-01-28 06:01:00,20.6,4.0,30.44,NW,309,3.0,-999.0,49,-99.99,,,0.00,weatherlink.com 1.10,2013-01-28 11:01:00,
2013-01-28 06:16:00,20.7,4.0,30.44,WNW,296,1.0,-999.0,49,-99.99,,,0.00,weatherlink.com 1.10,2013-01-28 11:16:00,
2013-01-28 06:31:00,20.6,5.0,30.44,NW,306,0.0,-999.0,50,-99.99,,,0.00,weatherlink.com 1.10,2013-01-28 11:31:00,
2013-01-28 06:47:00,20.4,5.0,30.44,NW,306,0.0,-999.0,51,-99.99,,,0.00,weatherlink.com 1.10,2013-01-28 11:47:00,
2013-01-28 07:02:00,20.3,5.0,30.43,NW,306,0.0,-999.0,52,-99.99,,,0.00,weatherlink.com 1.10,2013-01-28 12:02:00,
2013-01-28 07:17:00,20.5,5.0,30.43,NW,306,0.0,-999.0,52,-99.99,,,0.00,weatherlink.com 1.10,2013-01-28 12:17:00,
2013-01-28 07:32:00,20.5,5.0,30.44,NW,306,1.0,-999.0,52,-99.99,,,0.00,weatherlink.com 1.10,2013-01-28 12:32:00,
2013-01-28 07:47:00,20.7,5.0,30.44,NW,305,0.0,-999.0,51,-99.99,,,0.00,weatherlink.com 1.10,2013-01-28 12:47:00,
2013-01-28 08:02:00,21.0,5.0,30.44,NW,305,0.0,-999.0,51,-99.99,,,0.00,weatherlink.com 1.10,2013-01-28 13:02:00,
2013-01-28 08:17:00,21.6,5.0,30.44,NW,305,0.0,-999.0,50,-99.99,,,0.00,weatherlink.com 1.10,2013-01-28 13:17:00,
2013-01-28 08:32:00,22.6,6.0,30.43,NW,305,0.0,-999.0,50,-99.99,,,0.00,weatherlink.com 1.10,2013-01-28 13:32:00,
2013-01-28 08:47:00,23.3,6.0,30.43,NW,306,0.0,-999.0,47,-99.99,,,0.00,weatherlink.com 1.10,2013-01-28 13:47:00,
2013-01-28 09:02:00,23.5,5.0,30.44,WNW,283,0.0,-999.0,46,-99.99,,,0.00,weatherlink.com 1.10,2013-01-28 14:02:00,
2013-01-28 09:17:00,23.9,6.0,30.43,West,277,1.0,-999.0,46,-99.99,,,0.00,weatherlink.com 1.10,2013-01-28 14:17:00,
2013-01-28 09:33:00,24.4,6.0,30.43,West,279,0.0,-999.0,46,-99.99,,,0.00,weatherlink.com 1.10,2013-01-28 14:33:00,
2013-01-28 09:48:00,25.4,5.0,30.42,WNW,300,2.0,-999.0,42,-99.99,,,0.00,weatherlink.com 1.10,2013-01-28 14:48:00,
2013-01-28 10:03:00,26.2,4.0,30.43,WNW,298,1.0,-999.0,39,-99.99,,,0.00,weatherlink.com 1.10,2013-01-28 15:03:00,
2013-01-28 10:18:00,26.1,3.0,30.42,NW,309,3.0,-999.0,37,-99.99,,,0.00,weatherlink.com 1.10,2013-01-28 15:18:00,
2013-01-28 10:33:00,27.2,3.0,30.41,NW,318,0.0,-999.0,35,-99.99,,,0.00,weatherlink.com 1.10,2013-01-28 15:33:00,
2013-01-28 10:48:00,27.6,4.0,30.40,NW,319,0.0,-999.0,36,-99.99,,,0.00,weatherlink.com 1.10,2013-01-28 15:48:00,
2013-01-28 11:03:00,27.7,3.0,30.39,NW,325,0.0,-999.0,35,-99.99,,,0.00,weatherlink.com 1.10,2013-01-28 16:03:00,
2013-01-28 11:18:00,28.1,3.0,30.38,West,266,1.0,-999.0,34,-99.99,,,0.00,weatherlink.com 1.10,2013-01-28 16:18:00,
2013-01-28 11:33:00,28.5,5.0,30.37,SW,220,1.0,-999.0,36,-99.99,,,0.00,weatherlink.com 1.10,2013-01-28 16:33:00,
2013-01-28 11:49:00,28.7,4.0,30.36,West,276,0.0,-999.0,35,-99.99,,,0.00,weatherlink.com 1.10,2013-01-28 16:49:00,
2013-01-28 12:04:00,29.0,4.0,30.34,South,186,2.0,-999.0,35,-99.99,,,0.00,weatherlink.com 1.10,2013-01-28 17:04:00,
2013-01-28 12:19:00,28.9,3.0,30.33,South,180,6.0,-999.0,33,-99.99,,,0.00,weatherlink.com 1.10,2013-01-28 17:19:00,
2013-01-28 12:34:00,28.9,6.0,30.33,SSW,202,0.0,-999.0,37,-99.99,,,0.00,weatherlink.com 1.10,2013-01-28 17:34:00,
2013-01-28 12:49:00,29.0,7.0,30.32,SSW,205,6.0,-999.0,40,-99.99,,,0.00,weatherlink.com 1.10,2013-01-28 17:49:00,
2013-01-28 13:04:00,29.0,6.0,30.30,SW,234,4.0,-999.0,38,-99.99,,,0.00,weatherlink.com 1.10,2013-01-28 18:04:00,
2013-01-28 13:19:00,29.2,7.0,30.29,SSE,160,6.0,-999.0,39,-99.99,,,0.00,weatherlink.com 1.10,2013-01-28 18:19:00,
2013-01-28 13:34:00,29.5,7.0,30.28,SSW,207,6.0,-999.0,38,-99.99,,,0.00,weatherlink.com 1.10,2013-01-28 18:34:00,
2013-01-28 13:49:00,29.7,7.0,30.26,SSE,167,1.0,-999.0,39,-99.99,,,0.00,weatherlink.com 1.10,2013-01-28 18:49:00,
2013-01-28 14:05:00,29.8,9.0,30.25,South,169,5.0,-999.0,41,-99.99,,,0.00,weatherlink.com 1.10,2013-01-28 19:05:00,
2013-01-28 14:20:00,30.2,9.0,30.23,SSE,157,0.0,-999.0,41,-99.99,,,0.00,weatherlink.com 1.10,2013-01-28 19:20:00,
2013-01-28 14:35:00,30.5,8.0,30.24,South,184,4.0,-999.0,39,-99.99,,,0.00,weatherlink.com 1.10,2013-01-28 19:35:00,
2013-01-28 14:50:00,29.7,13.0,30.23,SW,214,0.0,-999.0,51,-99.99,,,0.00,weatherlink.com 1.10,2013-01-28 19:50:00,
2013-01-28 15:05:00,28.9,16.0,30.23,SSW,193,4.0,-999.0,58,-99.99,,,0.00,weatherlink.com 1.10,2013-01-28 20:05:00,
2013-01-28 15:20:00,28.1,19.0,30.22,SW,229,1.0,-999.0,68,-99.99,,,0.00,weatherlink.com 1.10,2013-01-28 20:20:00,
2013-01-28 15:35:00,27.2,20.0,30.23,SSW,203,4.0,-999.0,74,-99.99,,,0.00,weatherlink.com 1.10,2013-01-28 20:35:00,
2013-01-28 15:50:00,26.9,22.0,30.22,SSW,196,3.0,-999.0,80,-99.99,,,0.00,weatherlink.com 1.10,2013-01-28 20:50:00,
2013-01-28 16:05:00,26.5,22.0,30.22,SW,215,0.0,-999.0,83,-99.99,,,0.00,weatherlink.com 1.10,2013-01-28 21:05:00,
2013-01-28 16:20:00,26.3,23.0,30.22,SW,232,0.0,-999.0,86,-99.99,,,0.00,weatherlink.com 1.10,2013-01-28 21:20:00,
2013-01-28 16:35:00,26.1,23.0,30.21,SW,231,0.0,-999.0,87,-99.99,,,0.00,weatherlink.com 1.10,2013-01-28 21:35:00,
2013-01-28 16:51:00,26.2,23.0,30.19,SSE,166,0.0,-999.0,88,-99.99,,,0.00,weatherlink.com 1.10,2013-01-28 21:51:00,
2013-01-28 17:06:00,26.2,23.0,30.18,ESE,105,0.0,-999.0,89,-99.99,,,0.00,weatherlink.com 1.10,2013-01-28 22:06:00,
2013-01-28 17:21:00,26.3,24.0,30.17,East,94,4.0,-999.0,90,-99.99,,,0.00,weatherlink.com 1.10,2013-01-28 22:21:00,
2013-01-28 17:36:00,26.5,24.0,30.16,SE,131,2.0,-999.0,91,-99.99,,,0.00,weatherlink.com 1.10,2013-01-28 22:36:00,
2013-01-28 17:51:00,26.8,25.0,30.15,ESE,111,0.0,-999.0,91,-99.99,,,0.00,weatherlink.com 1.10,2013-01-28 22:51:00,
2013-01-28 18:06:00,27.2,25.0,30.14,ESE,113,4.0,-999.0,92,-99.99,,,0.00,weatherlink.com 1.10,2013-01-28 23:06:00,
2013-01-28 18:21:00,27.8,26.0,30.14,SE,126,1.0,-999.0,93,-99.99,,,0.00,weatherlink.com 1.10,2013-01-28 23:21:00,
2013-01-28 18:36:00,28.2,27.0,30.13,East,100,2.0,-999.0,93,-99.99,,,0.00,weatherlink.com 1.10,2013-01-28 23:36:00,
2013-01-28 18:51:00,28.7,27.0,30.12,SE,141,4.0,-999.0,93,-99.99,,,0.00,weatherlink.com 1.10,2013-01-28 23:51:00,
2013-01-28 19:06:00,29.2,28.0,30.13,ESE,119,5.0,-999.0,93,-99.99,,,0.00,weatherlink.com 1.10,2013-01-29 00:06:00,
2013-01-28 19:22:00,29.4,28.0,30.10,ESE,122,5.0,-999.0,94,-99.99,,,0.00,weatherlink.com 1.10,2013-01-29 00:22:00,
2013-01-28 19:37:00,29.7,28.0,30.11,SE,140,0.0,-999.0,94,-99.99,,,0.00,weatherlink.com 1.10,2013-01-29 00:37:00,
2013-01-28 19:52:00,30.1,29.0,30.12,SSW,196,0.0,-999.0,94,-99.99,,,0.00,weatherlink.com 1.10,2013-01-29 00:52:00,
2013-01-28 20:07:00,30.1,29.0,30.11,SSW,196,0.0,-999.0,94,-99.99,,,0.00,weatherlink.com 1.10,2013-01-29 01:07:00,
2013-01-28 20:22:00,30.1,29.0,30.11,SSW,196,1.0,-999.0,94,-99.99,,,0.00,weatherlink.com 1.10,2013-01-29 01:22:00,
2013-01-28 20:37:00,28.7,27.0,30.10,NW,323,3.0,-999.0,93,-99.99,,,0.00,weatherlink.com 1.10,2013-01-29 01:37:00,
2013-01-28 20:52:00,27.8,26.0,30.09,NNW,331,0.0,-999.0,93,-99.99,,,0.00,weatherlink.com 1.10,2013-01-29 01:52:00,
2013-01-28 21:07:00,27.8,26.0,30.08,NNW,331,0.0,-999.0,94,-99.99,,,0.00,weatherlink.com 1.10,2013-01-29 02:07:00,
2013-01-28 21:22:00,27.9,26.0,30.07,NNW,331,2.0,-999.0,94,-99.99,,,0.00,weatherlink.com 1.10,2013-01-29 02:22:00,
2013-01-28 21:37:00,27.8,26.0,30.06,NNW,332,0.0,-999.0,94,-99.99,,,0.00,weatherlink.com 1.10,2013-01-29 02:37:00,
2013-01-28 21:52:00,27.7,26.0,30.06,NNW,332,2.0,-999.0,94,-99.99,,,0.00,weatherlink.com 1.10,2013-01-29 02:52:00,
2013-01-28 22:07:00,27.6,26.0,30.06,NNW,333,0.0,-999.0,94,-99.99,,,0.00,weatherlink.com 1.10,2013-01-29 03:07:00,
2013-01-28 22:23:00,27.6,26.0,30.05,NNW,333,1.0,-999.0,94,-99.99,,,0.00,weatherlink.com 1.10,2013-01-29 03:23:00,
2013-01-28 22:38:00,27.5,26.0,30.05,NNW,346,3.0,-999.0,94,-99.99,,,0.00,weatherlink.com 1.10,2013-01-29 03:38:00,
2013-01-28 22:53:00,27.4,26.0,30.05,North,355,2.0,-999.0,94,-99.99,,,0.00,weatherlink.com 1.10,2013-01-29 03:53:00,
2013-01-28 23:08:00,27.4,26.0,30.05,North,360,3.0,-999.0,94,-99.99,,,0.00,weatherlink.com 1.10,2013-01-29 04:08:00,
2013-01-28 23:23:00,27.4,26.0,30.06,North,355,4.0,-999.0,94,-99.99,,,0.00,weatherlink.com 1.10,2013-01-29 04:23:00,
2013-01-28 23:38:00,27.2,26.0,30.05,North,360,2.0,-999.0,94,-99.99,,,0.00,weatherlink.com 1.10,2013-01-29 04:38:00,
2013-01-28 23:53:00,27.3,26.0,30.05,North,360,2.0,-999.0,95,-99.99,,,0.00,weatherlink.com 1.10,2013-01-29 04:53:00,